Location: Bothwell
(42.3833°S, 147.0000°E)
Time: 19:11:29
(UTC+11:00)

DOVE 4 - Pass Details

Date: 01 October 2022
Orbit: 587 x 795 km, 97.8° (Epoch: 26 November)

Event Time Altitude Azimuth Distance (km) Brightness Sun altitude
Exits shadow 23:42:58 11° 215° (SW) 2,343 ? -44.1°
Drops below altitude 10° 23:43:08 10° 214° (SSW) 2,394 ? -44.1°
Sets 23:45:48 0° 203° (SSW) 3,337 ? -44.2°
